TimeEST,TemperatureF,Dew PointF,Humidity,Sea Level PressureIn,VisibilityMPH,Wind Direction,Wind SpeedMPH,Gust SpeedMPH,PrecipitationIn,Events,Conditions,WindDirDegrees,DateUTC
12:52 AM,17.1,14.0,88,30.40,9.0,Calm,Calm,-,N/A,,Clear,0,2013-01-08 05:52:00
1:52 AM,15.1,12.9,91,30.40,8.0,Calm,Calm,-,N/A,,Clear,0,2013-01-08 06:52:00
2:52 AM,16.0,14.0,92,30.38,8.0,Calm,Calm,-,N/A,,Clear,0,2013-01-08 07:52:00
3:52 AM,15.1,10.9,84,30.37,8.0,ENE,3.5,-,N/A,,Clear,60,2013-01-08 08:52:00
4:52 AM,16.0,12.9,88,30.37,8.0,Calm,Calm,-,N/A,,Clear,0,2013-01-08 09:52:00
5:52 AM,14.0,10.0,84,30.38,8.0,Calm,Calm,-,N/A,,Clear,0,2013-01-08 10:52:00
6:52 AM,14.0,10.9,88,30.39,8.0,Calm,Calm,-,N/A,,Clear,0,2013-01-08 11:52:00
7:52 AM,15.1,12.0,88,30.42,6.0,Calm,Calm,-,N/A,,Clear,0,2013-01-08 12:52:00
8:52 AM,19.9,15.1,81,30.41,6.0,Calm,Calm,-,N/A,,Haze,0,2013-01-08 13:52:00
9:52 AM,37.9,27.0,65,30.40,9.0,SW,10.4,-,N/A,,Clear,220,2013-01-08 14:52:00
10:52 AM,42.1,28.0,58,30.38,10.0,SW,11.5,18.4,N/A,,Clear,220,2013-01-08 15:52:00
11:52 AM,44.1,27.0,51,30.34,10.0,SW,13.8,28.8,N/A,,Clear,220,2013-01-08 16:52:00
12:52 PM,45.0,28.0,52,30.31,10.0,WSW,9.2,17.3,N/A,,Clear,240,2013-01-08 17:52:00
1:52 PM,46.0,28.0,50,30.32,10.0,SSW,10.4,-,N/A,,Clear,210,2013-01-08 18:52:00
2:52 PM,46.0,28.0,50,30.31,10.0,SSW,8.1,-,N/A,,Clear,210,2013-01-08 19:52:00
3:52 PM,46.0,28.0,50,30.32,10.0,SSW,8.1,-,N/A,,Clear,210,2013-01-08 20:52:00
4:52 PM,43.0,28.9,58,30.32,10.0,South,3.5,-,N/A,,Clear,190,2013-01-08 21:52:00
5:52 PM,34.0,28.0,79,30.35,10.0,Calm,Calm,-,N/A,,Clear,0,2013-01-08 22:52:00
6:52 PM,32.0,27.0,82,30.36,10.0,Calm,Calm,-,N/A,,Clear,0,2013-01-08 23:52:00
7:52 PM,28.0,25.0,88,30.37,9.0,Calm,Calm,-,N/A,,Clear,0,2013-01-09 00:52:00
8:52 PM,28.0,26.1,92,30.38,9.0,Calm,Calm,-,N/A,,Clear,0,2013-01-09 01:52:00
9:52 PM,27.0,25.0,92,30.39,7.0,Calm,Calm,-,N/A,,Clear,0,2013-01-09 02:52:00
10:52 PM,27.0,25.0,92,30.39,7.0,Calm,Calm,-,N/A,,Clear,0,2013-01-09 03:52:00
11:52 PM,24.1,21.0,88,30.38,6.0,Calm,Calm,-,N/A,,Clear,0,2013-01-09 04:52:00